TimeMST,TemperatureF,Dew PointF,Humidity,Sea Level PressureIn,VisibilityMPH,Wind Direction,Wind SpeedMPH,Gust SpeedMPH,PrecipitationIn,Events,Conditions,WindDirDegrees,DateUTC
12:54 AM,26.1,7.0,44,30.11,10.0,West,10.4,-,N/A,,Clear,280,2013-01-22 07:54:00
1:54 AM,32.0,7.0,35,30.08,10.0,West,11.5,-,N/A,,Clear,260,2013-01-22 08:54:00
2:54 AM,30.0,5.0,35,30.09,10.0,West,10.4,-,N/A,,Clear,260,2013-01-22 09:54:00
3:54 AM,33.1,3.0,28,30.06,10.0,WSW,16.1,-,N/A,,Clear,240,2013-01-22 10:54:00
4:54 AM,32.0,1.0,27,30.07,10.0,West,13.8,-,N/A,,Clear,260,2013-01-22 11:54:00
5:54 AM,34.0,-2.0,22,30.08,10.0,West,13.8,-,N/A,,Clear,260,2013-01-22 12:54:00
6:54 AM,33.1,-4.0,20,30.13,10.0,West,12.7,-,N/A,,Clear,260,2013-01-22 13:54:00
7:54 AM,28.0,-0.9,29,30.17,10.0,WNW,12.7,-,N/A,,Clear,290,2013-01-22 14:54:00
8:54 AM,41.0,-2.9,16,30.12,10.0,WNW,11.5,-,N/A,,Clear,290,2013-01-22 15:54:00
9:54 AM,48.9,-0.0,13,30.14,10.0,West,8.1,-,N/A,,Clear,280,2013-01-22 16:54:00
10:54 AM,59.0,-0.9,9,30.11,10.0,Calm,Calm,-,N/A,,Clear,0,2013-01-22 17:54:00
11:54 AM,64.9,-9.0,5,30.06,10.0,Calm,Calm,-,N/A,,Clear,0,2013-01-22 18:54:00
12:54 PM,66.0,-20.9,4,30.03,10.0,Variable,4.6,-,N/A,,Clear,0,2013-01-22 19:54:00
1:54 PM,66.9,-20.0,4,29.98,10.0,West,4.6,-,N/A,,Clear,280,2013-01-22 20:54:00
2:54 PM,66.9,-18.0,4,30.00,10.0,Calm,Calm,-,N/A,,Clear,0,2013-01-22 21:54:00
3:54 PM,66.9,-17.0,4,30.01,10.0,NW,5.8,-,N/A,,Clear,310,2013-01-22 22:54:00
4:54 PM,59.0,-14.1,5,30.04,10.0,NW,9.2,-,N/A,,Clear,310,2013-01-22 23:54:00
5:54 PM,43.0,-13.0,9,30.11,10.0,West,8.1,-,N/A,,Clear,270,2013-01-23 00:54:00
6:54 PM,44.1,-13.0,9,30.12,10.0,NNW,3.5,-,N/A,,Clear,330,2013-01-23 01:54:00
7:54 PM,37.9,-8.0,14,30.18,10.0,West,10.4,-,N/A,,Clear,280,2013-01-23 02:54:00
8:54 PM,35.1,-6.0,17,30.17,10.0,West,13.8,-,N/A,,Clear,270,2013-01-23 03:54:00
9:54 PM,34.0,-7.1,17,30.17,10.0,West,13.8,-,N/A,,Clear,270,2013-01-23 04:54:00
10:54 PM,33.1,-8.0,17,30.14,10.0,West,11.5,-,N/A,,Clear,270,2013-01-23 05:54:00
11:54 PM,30.0,-8.0,19,30.14,10.0,West,11.5,-,N/A,,Clear,280,2013-01-23 06:54:00